{"data":{"norad_id":58414,"intl_designator":"2023-180N","name":"STARLINK-30922","alt_names":[],"object_type":"PAYLOAD","status":"ACTIVE","operator":null,"country":"US","launch_date":"2023-11-22","launch_site_code":"AFETR","launch_vehicle":null,"mission":null,"orbit_class":"UNKNOWN","rcs_meters":null,"size_class":null,"mass_kg":null,"dimensions":null,"purposes":["comms"],"wikipedia_slug":null,"has_3d_model":false,"image_url":null,"decayed_at":null,"tle_current":{"epoch":"2026-09-20T16:06:44.142336Z","epoch_age_seconds":132015,"freshness":"FRESH","line1":"1 58414U 23180N   26263.67134424 -.00001093  00000+0 -30216-4 0  9996","line2":"2 58414  43.0041  31.5797 0000937 271.7802  88.2942 15.27581920157448","mean_motion":15.2758192,"eccentricity":9.37e-5,"inclination_deg":43.0041,"raan_deg":31.5797,"arg_perigee_deg":271.7802,"mean_anomaly_deg":88.2942,"bstar":-3.0216e-5,"rev_number":15744,"period_min":94.266630230868,"perigee_km":482.40045427646,"apogee_km":483.68623947346,"semimajor_km":6861.180346875,"source":"CELESTRAK","updated_at":"2026-09-21T09:00:33.872333Z"}}}